This demonstration page uses our WeatherBlox Daily Observations layout. Learn more.

Left ArrowRight Arrow

Hourly Observations for March 3, 2018

Temp ( °F °C ) Dew Point ( °F °C ) Humidity (%) Winds ( mph kmh ) Pressure ( in mb ) Visibility ( mi km ) Precip ( " mm )
12:52 am 00:52 Clear 43 6.1 27 -2.8 53 53 SSE 14 22 30.29 1026 10 16 0.00 0.00
1:52 am 01:52 Clear 43 6.1 27 -2.8 53 53 SSE 16 26 30.30 1026 10 16 0.00 0.00
2:52 am 02:52 Clear 41 5 27 -2.8 57 57 SSE 13 20 30.32 1027 10 16 0.00 0.00
3:52 am 03:52 Clear 40 4.4 28 -2.2 63 63 SSE 13 20 30.32 1027 10 16 0.00 0.00
4:52 am 04:52 Clear 39 3.9 28 -2.2 65 65 SE 13 20 30.32 1027 10 16 0.00 0.00
5:52 am 05:52 Clear 39 3.9 28 -2.2 65 65 SSE 14 22 30.32 1027 10 16 0.00 0.00
6:52 am 06:52 Sunny 40 4.4 28 -2.2 63 63 SSE 16 26 30.31 1027 10 16 0.00 0.00
7:52 am 07:52 Sunny 42 5.6 28 -2.2 58 58 SSE 20 31 30.32 1027 10 16 0.00 0.00
8:52 am 08:52 Sunny 46 7.8 29 -1.7 51 51 SSE 17 28 30.32 1027 10 16 0.00 0.00
9:52 am 09:52 Sunny 51 10.6 30 -1.1 44 44 SSE 17 28 30.31 1026 10 16 0.00 0.00
10:52 am 10:52 Sunny 54 12.2 31 -0.6 42 42 SE 16 26 30.31 1026 10 16 0.00 0.00
11:52 am 11:52 Sunny 57 13.9 33 0.6 41 41 SSE 17 28 30.27 1025 10 16 0.00 0.00
12:52 pm 12:52 Sunny 60 15.6 34 1.1 38 38 SE 14 22 30.25 1025 10 16 0.00 0.00
1:52 pm 13:52 Sunny 62 16.7 34 1.1 35 35 SE 14 22 30.23 1024 10 16 0.00 0.00
2:52 pm 14:52 Sunny 63 17.2 32 0 31 31 SSE 15 24 30.21 1023 10 16 0.00 0.00
3:52 pm 15:52 Sunny 63 17.2 29 -1.7 28 28 SSE 15 24 30.19 1022 10 16 0.00 0.00
4:52 pm 16:52 Sunny 62 16.7 26 -3.3 25 25 SE 13 20 30.19 1023 10 16 0.00 0.00
5:52 pm 17:52 Sunny 58 14.4 25 -3.9 28 28 SE 17 28 30.19 1022 10 16 0.00 0.00
6:52 pm 18:52 Clear 55 12.8 28 -2.2 35 35 SE 13 20 30.20 1023 10 16 0.00 0.00
7:52 pm 19:52 Clear 54 12.2 29 -1.7 38 38 SSE 15 24 30.19 1022 10 16 0.00 0.00
8:52 pm 20:52 Clear 52 11.1 29 -1.7 41 41 SE 14 22 30.19 1022 10 16 0.00 0.00
9:52 pm 21:52 Clear 50 10 30 -1.1 46 46 SE 16 26 30.18 1022 10 16 0.00 0.00
10:52 pm 22:52 Clear 48 8.9 31 -0.6 52 52 SSE 16 26 30.19 1022 10 16 0.00 0.00
11:52 pm 23:52 Clear 46 7.8 31 -0.6 56 56 SSE 14 22 30.19 1022 10 16 0.00 0.00

Powered by Vaisala Xweather